This is the latest recevied weather packets stored in our database for station/object WE8M. If no packets are shown the sender has not sent any weather packets the latest 10 day(s).
| Time | Temp. | Humidity | Pressure | Rain* | Wind** | Luminosity | Snow |
|---|---|---|---|---|---|---|---|
| 1777644268 | 10.56° C | 67% | 1012.3 hPa | 0 mm | - | - | - |
| 1777643965 | 10.56° C | 68% | 1012.4 hPa | 0 mm | - | - | - |
| 1777643662 | 10.56° C | 70% | 1012.5 hPa | 0 mm | - | - | - |
| 1777643359 | 10.56° C | 67% | 1012.3 hPa | 0 mm | - | - | - |
| 1777643056 | 10.56° C | 68% | 1012.3 hPa | 0 mm | - | - | - |
| 1777642752 | 10.56° C | 68% | 1012.4 hPa | 0 mm | - | - | - |
| 1777642449 | 10.56° C | 66% | 1012.5 hPa | 0 mm | - | - | - |
| 1777642146 | 10.56° C | 66% | 1012.5 hPa | 0 mm | - | - | - |
| 1777641844 | 10.56° C | 66% | 1012.8 hPa | 0 mm | - | - | - |
| 1777641538 | 10.56° C | 66% | 1012.8 hPa | 0 mm | - | - | - |
| 1777641238 | 10° C | 66% | 1012.7 hPa | 0 mm | - | - | - |
| 1777640935 | 10° C | 66% | 1012.8 hPa | 0 mm | - | - | - |
| 1777640632 | 10° C | 67% | 1012.8 hPa | 0 mm | - | - | - |
| 1777640328 | 9.44° C | 66% | 1013 hPa | 0 mm | - | - | - |
| 1777640024 | 9.44° C | 69% | 1013 hPa | 0 mm | - | - | - |
| 1777639722 | 9.44° C | 67% | 1013 hPa | 0 mm | - | - | - |
| 1777639420 | 9.44° C | 68% | 1012.7 hPa | 0 mm | - | - | - |
| 1777639120 | 8.89° C | 67% | 1012.8 hPa | 0 mm | - | - | - |
| 1777638817 | 8.89° C | 67% | 1012.9 hPa | 0 mm | - | - | - |
| 1777638517 | 8.89° C | 67% | 1012.9 hPa | 0 mm | - | - | - |
| 1777638215 | 8.89° C | 70% | 1013.1 hPa | 0 mm | - | - | - |
| 1777637911 | 8.89° C | 67% | 1013 hPa | 0 mm | - | - | - |
| 1777637607 | 8.89° C | 66% | 1013 hPa | 0 mm | - | - | - |
| 1777637305 | 8.89° C | 69% | 1012.9 hPa | 0 mm | - | - | - |
| 1777637001 | 8.89° C | 68% | 1013.3 hPa | 0 mm | - | - | - |
* Rain latest hour (hover to see other rain measurements)
** Current wind speed in m/s (hover to see current wind gust speed)